Terminal Aerodrome Forecast
Issued by NWS Salt Lake City, UT

Home | Current Version | Previous Version | Text Only | Print | Product List | Glossary On
Versions: 1 2 3 4 5 6 7 8 9 10 11 12 13 14 15 16 17 18 19 20 21 22 23 24 25 26 27 28 29 30 31 32 33 34 35 36 37 38 39 40 41 42 43 44 45 46 47 48 49 50
000
FTUS45 KSLC 230853 AAC
TAFSLC
TAF AMD
KSLC 230853Z 2309/2412 29017G27KT P6SM SCT040 BKN080
     FM231100 31012G18KT P6SM BKN080
     FM231300 31008KT P6SM SCT080
     FM240100 15007KT P6SM VCSH SCT030 BKN050=

USA.gov is the U.S. government's official web portal to all federal, state and local government web resources and services.